Zurück zum Katalog

STARLINK-34936

AktivKommunikationVLEO
NORAD 65898·PAYLOAD·🇺🇸 United States

Gestartet Oct 7, 2025 von Cape Canaveral Space Force Station

Loading…

Nächste Überflüge (nächste 24 Stunden)

TLE

AktuellSource: CelesTrak SupGP

Epoche: Sep 14, 2026, 14:11 UTC

1 65898C 25224S   26257.59145833 -.00003683  00000+0 -10886-3 0  2575
2 65898  53.1573 209.5890 0001357  92.3998  28.3359 15.34377822    14

Verfolge STARLINK-34936 in Echtzeit mit AllMySat

Download on the App Store